LEBL Weather Reports


time (UTC)temp
F
wind
direction
speed
knots
gust
knots
rain 1hr
in
rain 24hr
in
rain mn
in
humidity
%
barometer
mb
20260506230004 59 310 4.3 0.0 0.00 0.00 0.00 76 1014.0
20260506224504 59 310 4.3 0.0 0.00 0.00 0.00 76 1014.0
20260506223005 61 20 0.9 0.0 0.00 0.00 0.00 72 1013.0
20260506220005 63 0 0.9 0.0 0.00 0.00 0.00 72 1013.0
20260506214504 63 0 0.9 0.0 0.00 0.00 0.00 72 1013.0
20260506203004 64 0 1.7 0.0 0.00 0.00 0.00 63 1012.0
20260506201504 64 0 1.7 0.0 0.00 0.00 0.00 63 1012.0
20260506194504 64 0 1.7 0.0 0.00 0.00 0.00 63 1012.0
20260506193004 64 160 4.3 0.0 0.00 0.00 0.00 63 1011.0
20260506191503 64 160 4.3 0.0 0.00 0.00 0.00 63 1011.0
20260506190004 64 180 6.1 0.0 0.00 0.00 0.00 63 1011.0
20260506184504 64 180 6.1 0.0 0.00 0.00 0.00 63 1011.0
20260506181504 66 180 6.1 0.0 0.00 0.00 0.00 59 1011.0
20260506180005 66 190 6.1 0.0 0.00 0.00 0.00 55 1011.0
20260506174504 66 190 6.1 0.0 0.00 0.00 0.00 55 1011.0
20260506171504 66 180 6.1 0.0 0.00 0.00 0.00 55 1011.0
20260506164504 66 190 0.9 0.0 0.00 0.00 0.00 52 1011.0
20260506163005 66 190 10.4 0.0 0.00 0.00 0.00 55 1011.0
20260506160005 66 190 11.3 0.0 0.00 0.00 0.00 48 1011.0
20260506153004 68 190 11.3 0.0 0.00 0.00 0.00 49 1011.0
20260506151503 68 190 11.3 0.0 0.00 0.00 0.00 49 1011.0
20260506150004 68 190 0.9 0.0 0.00 0.00 0.00 49 1011.0
20260506144504 68 190 0.9 0.0 0.00 0.00 0.00 49 1011.0
20260506141504 68 210 11.3 0.0 0.00 0.00 0.00 45 1012.0
20260506133004 66 190 0.9 0.0 0.00 0.00 0.00 48 1012.0
20260506131504 66 190 0.9 0.0 0.00 0.00 0.00 48 1012.0
20260506124504 66 180 0.9 0.0 0.00 0.00 0.00 48 1012.0
20260506121504 66 180 7.8 0.0 0.00 0.00 0.00 45 1012.0
20260506114504 66 180 7.8 0.0 0.00 0.00 0.00 42 1012.0
20260506113004 64 160 6.1 0.0 0.00 0.00 0.00 45 1012.0
20260506111503 64 160 6.1 0.0 0.00 0.00 0.00 45 1012.0
20260506110004 64 350 2.6 0.0 0.00 0.00 0.00 45 1013.0
20260506104504 64 350 2.6 0.0 0.00 0.00 0.00 45 1013.0
20260506103005 66 210 1.7 0.0 0.00 0.00 0.00 45 1013.0
20260506101504 66 210 1.7 0.0 0.00 0.00 0.00 45 1013.0
20260506100005 64 350 6.1 0.0 0.00 0.00 0.00 48 1013.0
20260506093004 63 340 7.8 0.0 0.00 0.00 0.00 55 1013.0
20260506091505 63 340 7.8 0.0 0.00 0.00 0.00 55 1013.0
20260506090005 61 350 10.4 0.0 0.00 0.00 0.00 55 1013.0
20260506083005 61 340 10.4 0.0 0.00 0.00 0.00 55 1013.0
20260506081504 61 340 10.4 0.0 0.00 0.00 0.00 55 1013.0
20260506061504 54 330 10.4 0.0 0.00 0.00 0.00 81 1012.0
20260506043004 54 330 7.0 0.0 0.00 0.00 0.00 87 1011.0
20260506041505 54 330 7.0 0.0 0.00 0.00 0.00 87 1011.0
20260506040004 54 360 5.2 0.0 0.00 0.00 0.00 87 1011.0
20260506034503 54 360 5.2 0.0 0.00 0.00 0.00 87 1011.0
20260506033005 55 350 7.0 0.0 0.00 0.00 0.00 82 1011.0
20260506031504 55 350 7.0 0.0 0.00 0.00 0.00 82 1011.0
20260506030004 55 340 7.0 0.0 0.00 0.00 0.00 87 1011.0
20260506023004 55 330 6.1 0.0 0.00 0.00 0.00 87 1011.0
20260506020005 57 320 5.2 0.0 0.00 0.00 0.00 82 1011.0
20260506014504 57 320 5.2 0.0 0.00 0.00 0.00 82 1011.0
20260506013004 57 320 4.3 0.0 0.00 0.00 0.00 82 1011.0
20260506010003 57 330 6.1 0.0 0.00 0.00 0.00 82 1011.0
20260506004504 57 330 6.1 0.0 0.00 0.00 0.00 82 1011.0
20260506003004 59 10 2.6 0.0 0.00 0.00 0.00 76 1011.0
20260506001504 59 10 2.6 0.0 0.00 0.00 0.00 76 1011.0
20260506000004 59 330 5.2 0.0 0.00 0.00 0.00 76 1011.0
20260505234504 59 330 5.2 0.0 0.00 0.00 0.00 76 1011.0
20260505233004 61 330 5.2 0.0 0.00 0.00 0.00 72 1011.0